Time,TemperatureF,DewpointF,PressureIn,WindDirection,WindDirectionDegrees,WindSpeedMPH,WindSpeedGustMPH,Humidity,HourlyPrecipIn,Conditions,Clouds,dailyrainin,SoftwareType,DateUTC
2013-03-17 08:29:00,12.1,5.1,30.45,NE,45,1.1,1.1,73,0.00,,,0.00,WUHU216HW,2013-03-17 13:29:00,
2013-03-17 08:30:00,12.1,5.1,30.45,NE,45,1.1,1.1,73,0.00,,,0.00,WUHU216HW,2013-03-17 13:30:00,
2013-03-17 08:35:00,12.1,5.1,30.45,NE,45,1.1,1.1,73,0.00,,,0.00,WUHU216HW,2013-03-17 13:35:00,
2013-03-17 08:59:00,13.5,6.8,30.45,NE,45,1.1,1.1,74,0.00,,,0.00,WUHU216HW,2013-03-17 13:59:00,
2013-03-17 09:00:00,13.5,6.8,30.45,NE,45,2.5,2.5,74,0.00,,,0.00,WUHU216HW,2013-03-17 14:00:00,
2013-03-17 09:04:00,13.5,6.8,30.45,NE,45,2.5,2.5,74,0.00,,,0.00,WUHU216HW,2013-03-17 14:04:00,
2013-03-17 09:09:00,13.5,6.8,30.45,NE,45,2.5,2.5,74,0.00,,,0.00,WUHU216HW,2013-03-17 14:09:00,
2013-03-17 09:30:00,14.8,7.4,30.45,NE,45,6.0,6.0,72,0.00,,,0.00,WUHU216HW,2013-03-17 14:30:00,
2013-03-17 09:35:00,14.8,7.4,30.45,NE,45,6.0,6.0,72,0.00,,,0.00,WUHU216HW,2013-03-17 14:35:00,
2013-03-17 10:00:00,16.2,8.4,30.44,NE,45,7.2,7.2,71,0.00,,,0.00,WUHU216HW,2013-03-17 15:00:00,
2013-03-17 10:05:00,16.2,8.4,30.44,NE,45,7.2,7.2,71,0.00,,,0.00,WUHU216HW,2013-03-17 15:05:00,
2013-03-17 10:30:00,17.5,9.4,30.43,NE,45,4.0,4.0,70,0.00,,,0.00,WUHU216HW,2013-03-17 15:30:00,
2013-03-17 10:35:00,17.5,9.4,30.43,NE,45,4.0,4.0,70,0.00,,,0.00,WUHU216HW,2013-03-17 15:35:00,
2013-03-17 11:00:00,19.4,10.8,30.42,NE,45,4.0,4.0,69,0.00,,,0.00,WUHU216HW,2013-03-17 16:00:00,
2013-03-17 11:05:00,19.4,10.8,30.42,NE,45,4.0,4.0,69,0.00,,,0.00,WUHU216HW,2013-03-17 16:05:00,
2013-03-17 11:30:00,21.2,12.6,30.41,NE,45,3.4,3.4,69,0.00,,,0.00,WUHU216HW,2013-03-17 16:30:00,
2013-03-17 11:35:00,21.2,12.6,30.41,NE,45,3.4,3.4,69,0.00,,,0.00,WUHU216HW,2013-03-17 16:35:00,
2013-03-17 12:00:00,22.7,13.7,30.40,ESE,113,2.5,2.5,68,0.00,,,0.00,WUHU216HW,2013-03-17 17:00:00,
2013-03-17 12:05:00,22.7,13.7,30.40,ESE,113,2.5,2.5,68,0.00,,,0.00,WUHU216HW,2013-03-17 17:05:00,
2013-03-17 12:30:00,25.2,15.4,30.39,West,270,2.0,2.0,66,0.00,,,0.00,WUHU216HW,2013-03-17 17:30:00,
2013-03-17 12:35:00,25.2,15.4,30.39,West,270,2.0,2.0,66,0.00,,,0.00,WUHU216HW,2013-03-17 17:35:00,
2013-03-17 13:00:00,26.3,16.0,30.37,SSE,158,3.6,3.6,65,0.00,,,0.00,WUHU216HW,2013-03-17 18:00:00,
2013-03-17 13:05:00,26.3,16.0,30.37,SSE,158,3.6,3.6,65,0.00,,,0.00,WUHU216HW,2013-03-17 18:05:00,
2013-03-17 13:30:00,27.9,17.3,30.34,East,90,4.7,4.7,64,0.00,,,0.00,WUHU216HW,2013-03-17 18:30:00,
2013-03-17 13:35:00,27.9,17.3,30.34,East,90,4.7,4.7,64,0.00,,,0.00,WUHU216HW,2013-03-17 18:35:00,
2013-03-17 14:00:00,29.0,17.6,30.32,East,90,4.3,4.3,62,0.00,,,0.00,WUHU216HW,2013-03-17 19:00:00,
2013-03-17 14:05:00,29.0,17.6,30.32,East,90,4.3,4.3,62,0.00,,,0.00,WUHU216HW,2013-03-17 19:05:00,
2013-03-17 14:30:00,29.9,18.4,30.29,East,90,3.4,3.4,62,0.00,,,0.00,WUHU216HW,2013-03-17 19:30:00,
2013-03-17 14:35:00,29.9,18.4,30.29,East,90,3.4,3.4,62,0.00,,,0.00,WUHU216HW,2013-03-17 19:35:00,
2013-03-17 15:00:00,29.7,18.3,30.27,ENE,68,2.0,2.0,62,0.00,,,0.00,WUHU216HW,2013-03-17 20:00:00,
2013-03-17 15:05:00,29.7,18.3,30.27,ENE,68,2.0,2.0,62,0.00,,,0.00,WUHU216HW,2013-03-17 20:05:00,
2013-03-17 15:30:00,30.2,18.7,30.25,East,90,2.5,2.5,62,0.00,,,0.00,WUHU216HW,2013-03-17 20:30:00,
2013-03-17 15:35:00,30.2,18.7,30.25,East,90,2.5,2.5,62,0.00,,,0.00,WUHU216HW,2013-03-17 20:35:00,
2013-03-17 16:00:00,30.6,19.1,30.25,ESE,113,4.9,4.9,62,0.00,,,0.00,WUHU216HW,2013-03-17 21:00:00,
2013-03-17 16:05:00,30.6,19.1,30.25,ESE,113,4.9,4.9,62,0.00,,,0.00,WUHU216HW,2013-03-17 21:05:00,
2013-03-17 16:30:00,31.0,19.1,30.24,North,0,0.4,0.4,61,0.00,,,0.00,WUHU216HW,2013-03-17 21:30:00,
2013-03-17 16:35:00,31.0,19.1,30.24,North,0,0.4,0.4,61,0.00,,,0.00,WUHU216HW,2013-03-17 21:35:00,
2013-03-17 17:00:00,31.3,19.8,30.22,ENE,68,4.5,4.5,62,0.00,,,0.00,WUHU216HW,2013-03-17 22:00:00,
2013-03-17 17:05:00,31.3,19.8,30.22,ENE,68,4.5,4.5,62,0.00,,,0.00,WUHU216HW,2013-03-17 22:05:00,
2013-03-17 17:30:00,31.7,20.2,30.22,East,90,4.7,4.7,62,0.00,,,0.00,WUHU216HW,2013-03-17 22:30:00,
2013-03-17 17:35:00,31.7,20.2,30.22,East,90,4.7,4.7,62,0.00,,,0.00,WUHU216HW,2013-03-17 22:35:00,
2013-03-17 18:00:00,30.8,19.3,30.19,SE,135,3.4,3.4,62,0.00,,,0.00,WUHU216HW,2013-03-17 23:00:00,
2013-03-17 18:05:00,30.8,19.3,30.19,SE,135,3.4,3.4,62,0.00,,,0.00,WUHU216HW,2013-03-17 23:05:00,
2013-03-17 18:30:00,30.2,19.4,30.19,ESE,113,1.8,1.8,64,0.00,,,0.00,WUHU216HW,2013-03-17 23:30:00,
2013-03-17 18:35:00,30.2,19.4,30.19,ESE,113,1.8,1.8,64,0.00,,,0.00,WUHU216HW,2013-03-17 23:35:00,
2013-03-17 19:00:00,29.7,19.4,30.17,ESE,113,4.9,4.9,65,0.00,,,0.00,WUHU216HW,2013-03-18 00:00:00,
2013-03-17 19:05:00,29.7,19.4,30.17,ESE,113,4.9,4.9,65,0.00,,,0.00,WUHU216HW,2013-03-18 00:05:00,
2013-03-17 19:30:00,29.2,18.8,30.16,NE,45,2.2,2.2,65,0.00,,,0.00,WUHU216HW,2013-03-18 00:30:00,
2013-03-17 19:35:00,29.2,18.8,30.16,NE,45,2.2,2.2,65,0.00,,,0.00,WUHU216HW,2013-03-18 00:35:00,
2013-03-17 20:00:00,29.0,19.0,30.14,ESE,113,4.9,4.9,66,0.00,,,0.00,WUHU216HW,2013-03-18 01:00:00,
2013-03-17 20:05:00,29.0,19.0,30.14,ESE,113,4.9,4.9,66,0.00,,,0.00,WUHU216HW,2013-03-18 01:05:00,
2013-03-17 20:30:00,28.8,18.9,30.14,East,90,0.4,0.4,66,0.00,,,0.00,WUHU216HW,2013-03-18 01:30:00,
2013-03-17 20:35:00,28.8,18.9,30.14,East,90,0.4,0.4,66,0.00,,,0.00,WUHU216HW,2013-03-18 01:35:00,
2013-03-17 21:00:00,28.8,19.3,30.15,SE,135,0.9,0.9,67,0.00,,,0.00,WUHU216HW,2013-03-18 02:00:00,
2013-03-17 21:05:00,28.8,19.3,30.15,SE,135,0.9,0.9,67,0.00,,,0.00,WUHU216HW,2013-03-18 02:05:00,
2013-03-17 21:30:00,29.2,19.9,30.14,ESE,113,0.9,0.9,68,0.00,,,0.00,WUHU216HW,2013-03-18 02:30:00,
2013-03-17 21:35:00,29.2,19.9,30.14,ESE,113,0.9,0.9,68,0.00,,,0.00,WUHU216HW,2013-03-18 02:35:00,
2013-03-17 22:00:00,29.3,20.4,30.13,ENE,68,4.5,4.5,69,0.00,,,0.00,WUHU216HW,2013-03-18 03:00:00,
2013-03-17 22:05:00,29.3,20.4,30.13,ENE,68,4.5,4.5,69,0.00,,,0.00,WUHU216HW,2013-03-18 03:05:00,
2013-03-17 22:30:00,29.5,21.0,30.11,ENE,68,1.3,1.3,70,0.00,,,0.00,WUHU216HW,2013-03-18 03:30:00,
2013-03-17 22:35:00,29.5,21.0,30.11,ENE,68,1.3,1.3,70,0.00,,,0.00,WUHU216HW,2013-03-18 03:35:00,
2013-03-17 23:00:00,29.7,21.8,30.11,NE,45,2.5,2.5,72,0.00,,,0.00,WUHU216HW,2013-03-18 04:00:00,
2013-03-17 23:05:00,29.7,21.8,30.11,NE,45,2.5,2.5,72,0.00,,,0.00,WUHU216HW,2013-03-18 04:05:00,
2013-03-17 23:30:00,29.9,22.2,30.10,ENE,68,1.8,1.8,73,0.00,,,0.00,WUHU216HW,2013-03-18 04:30:00,
2013-03-17 23:35:00,29.9,22.2,30.10,ENE,68,1.8,1.8,73,0.00,,,0.00,WUHU216HW,2013-03-18 04:35:00,